Find Starlink 3709

NORAD ID: 52102 Int'l Des: 2022-029 Owner: SPXS Country: US Constellation: starlink operational
LEOCIRCULAR

当前视图

正在加载3D地球...

About Starlink 3709

Starlink 3709 (NORAD 52102) is a starlink constellation satellite (v1.5) launched Mar 19, 2022 by SPXS of US. It operates in LEO, CIRCULAR orbit with a mass of 297.00 kg.

关于 Starlink 3709

正在加载描述...

即将过境

Passes for default location (London). Set your location on the main map for personalized predictions.

高度历史

Loading altitude history...

两行轨道根数

1 52102U 22029Q 26171.20375299 .00000245 00000-0 33479-4 0 9990
2 52102 53.1608 338.8014 0001284 82.4357 277.6780 15.08835745236268
Epoch: Jun 20, 2026 • Age: 48 hours

当前状态

高度 541.7 km
速度 7.60 km/s
星下点 34.91°N, 19.03°E
发射日期 Mar 19, 2022
运行时间 4.2 years
类型 internet

技术详情

分类 Payload
质量 297.00 kg
干质量 275.00 kg
总质量 297.00 kg
长度 0.20 m
直径 2.80 m
跨度 9.00 m
形状 Box + pan
制造商 SPXS
平台类型 Starlink
阶段状态 In Orbit
所有者/国家 SPXS/US

Most Searched